This demonstration page uses our WeatherBlox Daily Observations layout. Learn more.

Left ArrowRight Arrow

39.01783, -85.05884

Hourly Observations for May 21, 2018

Temp ( °F °C ) Dew Point ( °F °C ) Humidity (%) Winds ( mph kmh ) Pressure ( in mb ) Visibility ( mi km ) Precip ( " mm )
12:52 am 00:52 Mostly Cloudy 69 20.6 63 17.2 81 81 SSE 3 6 30.07 1018 10 16 0.00 0.00
1:52 am 01:52 Mostly Cloudy 70 21.1 63 17.2 79 79 E 5 7 30.06 1018 10 16 0.00 0.00
2:52 am 02:52 Mostly Cloudy 69 20.6 64 17.8 84 84 E 3 6 30.05 1018 10 16 0.00 0.00
3:52 am 03:52 Mostly Cloudy 67 19.4 63 17.2 87 87 NNE 5 7 30.06 1018 10 16 0.00 0.00
4:52 am 04:52 Cloudy 68 20 64 17.8 87 87 NNE 6 9 30.06 1018 9 14 0.00 0.00
5:52 am 05:52 Cloudy 67 19.4 64 17.8 91 91 ENE 8 13 30.07 1018 8 13 0.00 0.00
6:52 am 06:52 Cloudy 67 19.4 64 17.8 91 91 ENE 8 13 30.08 1019 7 11 0.00 0.00
7:52 am 07:52 Cloudy 67 19.4 63 17.2 87 87 E 8 13 30.10 1019 10 16 0.00 0.00
8:52 am 08:52 Mostly Cloudy 70 21.1 63 17.2 79 79 E 5 7 30.11 1020 10 16 0.00 0.00
9:52 am 09:52 Mostly Cloudy 73 22.8 65 18.3 76 76 SE 6 9 30.12 1020 10 16 0.00 0.00
10:52 am 10:52 Mostly Sunny 75 23.9 66 18.9 74 74 VRB 3 6 30.11 1020 10 16 0.00 0.00
11:52 am 11:52 Partly Cloudy 80 26.7 64 17.8 58 58 W 6 9 30.10 1019 10 16 0.00 0.00
12:52 pm 12:52 Mostly Cloudy 82 27.8 66 18.9 58 58 S 7 11 30.09 1019 10 16 0.00 0.00
1:52 pm 13:52 Partly Cloudy 83 28.3 63 17.2 51 51 VRB 5 7 30.06 1018 10 16 0.00 0.00
2:52 pm 14:52 Partly Cloudy 85 29.4 63 17.2 48 48 WNW 5 7 30.04 1017 10 16 0.00 0.00
3:52 pm 15:52 Mostly Cloudy 85 29.4 63 17.2 48 48 WSW 8 13 30.02 1017 10 16 0.00 0.00
4:52 pm 16:52 Mostly Cloudy 84 28.9 63 17.2 49 49 S 6 9 29.98 1015 10 16 0.00 0.00
5:52 pm 17:52 Mostly Cloudy 84 28.9 63 17.2 49 49 SW 8 13 29.98 1015 10 16 0.00 0.00
6:52 pm 18:52 Cloudy 82 27.8 66 18.9 58 58 SSW 5 7 29.98 1015 10 16 0.00 0.00
7:52 pm 19:52 Cloudy 80 26.7 66 18.9 62 62 WSW 5 7 29.98 1015 10 16 0.00 0.00
8:27 pm 20:27 Cloudy with Nearby Thunderstorms 78 25.6 64 17.8 62 62 NW 20 31 30.00 1016 10 16 0.00 0.00
8:41 pm 20:41 Cloudy with Thunderstorms 74 23.3 63 17.2 69 69 WNW 26 43 30.00 1016 10 16 0.00 0.00
8:52 pm 20:52 Cloudy with Thunderstorms 70 21.1 65 18.3 84 84 WNW 29 46 30.01 1016 4 6 0.00 0.03
8:55 pm 20:55 Cloudy with Strong Thunderstorms 68 20 66 18.9 93 93 NW 25 41 30.00 1016 2 3 0.04 1.02
9:00 pm 21:00 Cloudy with Strong Thunderstorms 68 20 66 18.9 93 93 WNW 24 39 30.03 1017 2 2 0.14 3.56
9:08 pm 21:08 Cloudy with Strong Thunderstorms 68 20 66 18.9 93 93 WNW 16 26 30.03 1017 1 2 0.31 7.87
9:22 pm 21:22 Cloudy with Thunderstorms 68 20 67 19.4 96 96 NNW 8 13 30.03 1017 3 5 0.56 14.22
9:52 pm 21:52 Cloudy with Thunderstorms 69 20.6 65 18.3 87 87 Calm 30.03 1017 9 14 0.58 14.73
10:20 pm 22:20 Cloudy with Light Rain 69 20.6 65 18.3 87 87 Calm 30.03 1017 8 13 0.03 0.76
10:41 pm 22:41 Cloudy 69 20.6 67 19.4 93 93 E 7 11 30.03 1017 10 16 0.04 1.02
10:52 pm 22:52 Cloudy 68 20 67 19.4 96 96 ESE 8 13 30.04 1017 9 14 0.04 1.02
11:52 pm 23:52 Cloudy 68 20 66 18.9 93 93 ESE 7 11 30.03 1017 10 16 0.00 0.00

Powered by AerisWeather